Avoca, PA

12:59 PM EST on November 22, 2019 (GMT -0500)
Wilkes-Barre-Scranton International

Weather History for KAVP - September, 2019

Change the Weather History Date:

Saturday, September 28, 2019

  Actual Average Record
Temperature  
Mean Temperature 71 °F 57 °F  
Max Temperature 84 °F 67 °F 84 °F (1946)
Min Temperature 58 °F 47 °F 30 °F (1957)
Degree Days  
Heating Degree Days 0 8  
Month to date heating degree days 32 118  
Since 1 July heating degree days 33 144  
Cooling Degree Days 6 1  
Month to date cooling degree days 87 52  
Year to date cooling degree days 826 576  
Growing Degree Days 20 (Base 50)    
Moisture  
Dew Point 62 °F    
Average Humidity 76    
Maximum Humidity 93    
Minimum Humidity 58    
Precipitation  
Precipitation 0.00 in 0.14 in 2.00 in (1908)
Month to date precipitation 1.14 3.79  
Year to date precipitation 38.80 28.82  
Sea Level Pressure  
Sea Level Pressure 30.06 in    
Wind  
Wind Speed 6 mph (SW)    
Max Wind Speed 15 mph    
Max Gust Speed 20 mph    
Visibility 10 miles    
Events      
T = Trace of Precipitation, MM = Missing Value Source: NWS Daily Summary

Daily Weather History Graph

Daily Weather History Graph

Search for Another Location

Airport or City:

Astronomy

Sep. 28, 2019 Rise Set
Actual Time 6:56 AM EDT 6:50 PM EDT
Civil Twilight 6:28 AM EDT 7:17 PM EDT
Nautical Twilight 5:56 AM EDT 7:49 PM EDT
Astronomical Twilight 5:23 AM EDT 8:22 PM EDT
Moon 6:28 AM EDT (9/28) 7:15 PM EDT (9/28)
Length of Visible Light 12h 49m
Length of Day
11h 53m
Waning Crescent, 0% of the Moon is Illuminated
Sep 28
Waning Crescent
Sep 28
New
Oct 5
First Quarter
Oct 13
Full
Oct 21
Last Quarter

Hourly Weather History & Observations

Time (EDT) Temp. Heat Index Dew Point Humidity Pressure Visibility Wind Dir Wind Speed Gust Speed Precip Events Conditions
12:54 AM 62.1 °F - 51.1 °F 67% 30.06 in 10.0 mi WSW 6.9 mph - N/A   Clear
1:54 AM 64.0 °F - 53.1 °F 67% 30.06 in 10.0 mi SW 8.1 mph - N/A   Clear
2:54 AM 64.0 °F - 55.9 °F 75% 30.04 in 10.0 mi SW 6.9 mph - N/A   Clear
3:54 AM 64.0 °F - 55.9 °F 75% 30.06 in 10.0 mi SSW 5.8 mph - N/A   Clear
4:54 AM 63.0 °F - 55.9 °F 78% 30.06 in 10.0 mi Variable 6.9 mph - N/A   Clear
5:54 AM 63.0 °F - 54.0 °F 72% 30.08 in 10.0 mi Variable 5.8 mph - N/A   Clear
6:54 AM 57.9 °F - 55.0 °F 90% 30.09 in 10.0 mi SSE 3.5 mph - N/A   Clear
7:54 AM 64.9 °F - 55.9 °F 73% 30.08 in 10.0 mi SSW 4.6 mph - N/A   Clear
8:54 AM 68.0 °F - 57.9 °F 70% 30.09 in 10.0 mi SSW 5.8 mph - N/A   Clear
9:54 AM 71.1 °F - 60.1 °F 68% 30.08 in 10.0 mi WSW 8.1 mph - N/A   Clear
10:54 AM 75.0 °F - 62.1 °F 64% 30.07 in 10.0 mi WSW 8.1 mph - N/A   Clear
11:54 AM 78.1 °F - 64.0 °F 62% 30.05 in 10.0 mi WSW 13.8 mph 19.6 mph N/A   Clear
12:54 PM 81.0 °F 82.7 °F 64.9 °F 58% 30.02 in 10.0 mi SW 10.4 mph - N/A   Clear
1:54 PM 81.0 °F 83.0 °F 66.0 °F 60% 30.02 in 10.0 mi WSW 9.2 mph - N/A   Mostly Cloudy
2:54 PM 81.0 °F 83.3 °F 66.9 °F 62% 30.01 in 10.0 mi South 5.8 mph - N/A   Scattered Clouds
3:54 PM 81.0 °F 83.3 °F 66.9 °F 62% 30.01 in 10.0 mi SW 4.6 mph - N/A   Scattered Clouds
4:54 PM 82.0 °F 84.5 °F 66.9 °F 60% 30.02 in 10.0 mi SW 8.1 mph - N/A   Scattered Clouds
5:54 PM 79.0 °F - 68.0 °F 69% 30.03 in 10.0 mi SSW 4.6 mph - N/A   Overcast
6:54 PM 77.0 °F - 66.9 °F 71% 30.05 in 9.0 mi SSW 4.6 mph - N/A   Mostly Cloudy
7:54 PM 75.0 °F - 66.9 °F 76% 30.06 in 9.0 mi Calm Calm - N/A   Mostly Cloudy
8:54 PM 73.0 °F - 68.0 °F 84% 30.08 in 8.0 mi South 3.5 mph - N/A   Overcast
9:54 PM 73.0 °F - 66.9 °F 81% 30.10 in 8.0 mi Calm Calm - N/A   Mostly Cloudy
10:54 PM 72.0 °F - 66.9 °F 84% 30.11 in 7.0 mi Calm Calm - N/A   Mostly Cloudy
11:54 PM 70.0 °F - 66.9 °F 90% 30.12 in 6.0 mi Calm Calm - N/A   Mostly Cloudy